Year,Month,Day,Hour,Minute,Value (Times are PST for temperature in C)
2008,04,22,00,00,2.60
2008,04,22,00,01,2.60
2008,04,22,00,02,2.60
2008,04,22,00,03,2.60
2008,04,22,00,04,2.60
2008,04,22,00,05,2.60
2008,04,22,00,06,2.60
2008,04,22,00,07,2.60
2008,04,22,00,08,2.60
2008,04,22,00,09,2.60
2008,04,22,00,10,2.60
2008,04,22,00,11,2.60
2008,04,22,00,12,2.50
2008,04,22,00,13,2.50
2008,04,22,00,14,2.50
2008,04,22,00,15,2.40
2008,04,22,00,16,2.40
2008,04,22,00,17,2.40
2008,04,22,00,18,2.40
2008,04,22,00,19,2.30
2008,04,22,00,20,2.30
2008,04,22,00,21,2.30
2008,04,22,00,22,2.40
2008,04,22,00,23,2.40
2008,04,22,00,24,2.40
2008,04,22,00,25,2.40
2008,04,22,00,26,2.50
2008,04,22,00,27,2.50
2008,04,22,00,28,2.50
2008,04,22,00,29,2.60
2008,04,22,00,30,2.60
2008,04,22,00,31,2.60
2008,04,22,00,32,2.70
2008,04,22,00,33,2.70
2008,04,22,00,34,2.70
2008,04,22,00,35,2.70
2008,04,22,00,36,2.70
2008,04,22,00,37,2.70
2008,04,22,00,38,2.80
2008,04,22,00,39,2.80
2008,04,22,00,40,2.90
2008,04,22,00,41,2.90
2008,04,22,00,42,2.90
2008,04,22,00,43,3.00
2008,04,22,00,44,3.10
2008,04,22,00,45,3.10
2008,04,22,00,46,3.10
2008,04,22,00,47,3.20
2008,04,22,00,48,3.20
2008,04,22,00,49,3.20
2008,04,22,00,50,3.30
2008,04,22,00,51,3.30
2008,04,22,00,52,3.30
2008,04,22,00,53,3.30
2008,04,22,00,54,3.30
2008,04,22,00,55,3.40
2008,04,22,00,56,3.40
2008,04,22,00,57,3.40
2008,04,22,00,58,3.40
2008,04,22,00,59,3.50
2008,04,22,01,00,3.50
2008,04,22,01,01,3.50
2008,04,22,01,02,3.50
2008,04,22,01,03,3.50
2008,04,22,01,04,3.50
2008,04,22,01,05,3.50
2008,04,22,01,06,3.50
2008,04,22,01,07,3.50
2008,04,22,01,08,3.50
2008,04,22,01,09,3.50
2008,04,22,01,10,3.50
2008,04,22,01,11,3.50
2008,04,22,01,12,3.50
2008,04,22,01,13,3.50
2008,04,22,01,14,3.50
2008,04,22,01,15,3.50
2008,04,22,01,16,3.50
2008,04,22,01,17,3.50
2008,04,22,01,18,3.50
2008,04,22,01,19,3.50
2008,04,22,01,20,3.60
2008,04,22,01,21,3.60
2008,04,22,01,22,3.60
2008,04,22,01,23,3.60
2008,04,22,01,24,3.60
2008,04,22,01,25,3.60
2008,04,22,01,26,3.60
2008,04,22,01,27,3.60
2008,04,22,01,28,3.60
2008,04,22,01,29,3.60
2008,04,22,01,30,3.60
2008,04,22,01,31,3.60
2008,04,22,01,32,3.60
2008,04,22,01,33,3.60
2008,04,22,01,34,3.60
2008,04,22,01,35,3.50
2008,04,22,01,36,3.50
2008,04,22,01,37,3.50
2008,04,22,01,38,3.50
2008,04,22,01,39,3.50
2008,04,22,01,40,3.50
2008,04,22,01,41,3.50
2008,04,22,01,42,3.50
2008,04,22,01,43,3.50
2008,04,22,01,44,3.50
2008,04,22,01,45,3.40
2008,04,22,01,46,3.50
2008,04,22,01,47,3.50
2008,04,22,01,48,3.50
2008,04,22,01,49,3.50
2008,04,22,01,50,3.50
2008,04,22,01,51,3.50
2008,04,22,01,52,3.50
2008,04,22,01,53,3.50
2008,04,22,01,54,3.50
2008,04,22,01,55,3.60
2008,04,22,01,56,3.50
2008,04,22,01,57,3.50
2008,04,22,01,58,3.50
2008,04,22,01,59,3.50
2008,04,22,02,00,3.50
2008,04,22,02,01,3.50
2008,04,22,02,02,3.50
2008,04,22,02,03,3.50
2008,04,22,02,04,3.50
2008,04,22,02,05,3.50
2008,04,22,02,06,3.50
2008,04,22,02,07,3.40
2008,04,22,02,08,3.40
2008,04,22,02,09,3.40
2008,04,22,02,10,3.40
2008,04,22,02,11,3.40
2008,04,22,02,12,3.40
2008,04,22,02,13,3.30
2008,04,22,02,14,3.30
2008,04,22,02,15,3.30
2008,04,22,02,16,3.30
2008,04,22,02,17,3.30
2008,04,22,02,18,3.30
2008,04,22,02,19,3.30
2008,04,22,02,20,3.30
2008,04,22,02,21,3.30
2008,04,22,02,22,3.30
2008,04,22,02,23,3.30
2008,04,22,02,24,3.30
2008,04,22,02,25,3.30
2008,04,22,02,26,3.20
2008,04,22,02,27,3.20
2008,04,22,02,28,3.20
2008,04,22,02,29,3.20
2008,04,22,02,30,3.20
2008,04,22,02,31,3.10
2008,04,22,02,32,3.10
2008,04,22,02,33,3.10
2008,04,22,02,34,3.10
2008,04,22,02,35,3.10
2008,04,22,02,36,3.10
2008,04,22,02,37,3.10
2008,04,22,02,38,3.10
2008,04,22,02,39,3.10
2008,04,22,02,40,3.00
2008,04,22,02,41,2.90
2008,04,22,02,42,2.90
2008,04,22,02,43,3.00
2008,04,22,02,44,3.10
2008,04,22,02,45,3.10
2008,04,22,02,46,3.00
2008,04,22,02,47,2.90
2008,04,22,02,48,2.90
2008,04,22,02,49,2.90
2008,04,22,02,50,2.90
2008,04,22,02,51,2.90
2008,04,22,02,52,2.90
2008,04,22,02,53,2.90
2008,04,22,02,54,2.90
2008,04,22,02,55,2.90
2008,04,22,02,56,3.10
2008,04,22,02,57,3.10
2008,04,22,02,58,3.10
2008,04,22,02,59,3.20
2008,04,22,03,00,3.20
2008,04,22,03,01,3.30
2008,04,22,03,02,3.30
2008,04,22,03,03,3.30
2008,04,22,03,04,3.40
2008,04,22,03,05,3.50
2008,04,22,03,06,3.60
2008,04,22,03,07,3.60
2008,04,22,03,08,3.70
2008,04,22,03,09,3.80
2008,04,22,03,10,3.80
2008,04,22,03,11,3.80
2008,04,22,03,12,3.80
2008,04,22,03,13,3.80
2008,04,22,03,14,3.90
2008,04,22,03,15,3.90
2008,04,22,03,16,3.90
2008,04,22,03,17,3.90
2008,04,22,03,18,3.90
2008,04,22,03,19,4.00
2008,04,22,03,20,4.00
2008,04,22,03,21,4.00
2008,04,22,03,22,4.00
2008,04,22,03,23,4.00
2008,04,22,03,24,4.00
2008,04,22,03,25,4.00
2008,04,22,03,26,4.00
2008,04,22,03,27,4.00
2008,04,22,03,28,4.00
2008,04,22,03,29,4.00
2008,04,22,03,30,4.00
2008,04,22,03,31,4.00
2008,04,22,03,32,4.00
2008,04,22,03,33,4.00
2008,04,22,03,34,4.10
2008,04,22,03,35,4.10
2008,04,22,03,36,4.10
2008,04,22,03,37,4.10
2008,04,22,03,38,4.10
2008,04,22,03,39,4.10
2008,04,22,03,40,4.20
2008,04,22,03,41,4.20
2008,04,22,03,42,4.20
2008,04,22,03,43,4.20
2008,04,22,03,44,4.20
2008,04,22,03,45,4.20
2008,04,22,03,46,4.20
2008,04,22,03,47,4.20
2008,04,22,03,48,4.20
2008,04,22,03,49,4.20
2008,04,22,03,50,4.20
2008,04,22,03,51,4.20
2008,04,22,03,52,4.20
2008,04,22,03,53,4.20
2008,04,22,03,54,4.20
2008,04,22,03,55,4.20
2008,04,22,03,56,4.20
2008,04,22,03,57,4.20
2008,04,22,03,58,4.20
2008,04,22,03,59,4.20
2008,04,22,04,00,4.20
2008,04,22,04,01,4.20
2008,04,22,04,02,4.20
2008,04,22,04,03,4.20
2008,04,22,04,04,4.20
2008,04,22,04,05,4.20
2008,04,22,04,06,4.10
2008,04,22,04,07,4.10
2008,04,22,04,08,4.10
2008,04,22,04,09,4.10
2008,04,22,04,10,4.00
2008,04,22,04,11,4.00
2008,04,22,04,12,4.00
2008,04,22,04,13,4.00
2008,04,22,04,14,3.90
2008,04,22,04,15,3.90
2008,04,22,04,16,3.90
2008,04,22,04,17,3.90
2008,04,22,04,18,3.80
2008,04,22,04,19,3.80
2008,04,22,04,20,3.80
2008,04,22,04,21,3.80
2008,04,22,04,22,3.80
2008,04,22,04,23,3.80
2008,04,22,04,24,3.80
2008,04,22,04,25,3.80
2008,04,22,04,26,3.80
2008,04,22,04,27,3.70
2008,04,22,04,28,3.70
2008,04,22,04,29,3.70
2008,04,22,04,30,3.70
2008,04,22,04,31,3.60
2008,04,22,04,32,3.60
2008,04,22,04,33,3.60
2008,04,22,04,34,3.60
2008,04,22,04,35,3.60
2008,04,22,04,36,3.60
2008,04,22,04,37,3.60
2008,04,22,04,38,3.60
2008,04,22,04,39,3.60
2008,04,22,04,40,3.50
2008,04,22,04,41,3.50
2008,04,22,04,42,3.50
2008,04,22,04,43,3.50
2008,04,22,04,44,3.50
2008,04,22,04,45,3.50
2008,04,22,04,46,3.50
2008,04,22,04,47,3.50
2008,04,22,04,48,3.50
2008,04,22,04,49,3.50
2008,04,22,04,50,3.50
2008,04,22,04,51,3.50
2008,04,22,04,52,3.50
2008,04,22,04,53,3.50
2008,04,22,04,54,3.50
2008,04,22,04,55,3.50
2008,04,22,04,56,3.50
2008,04,22,04,57,3.50
2008,04,22,04,58,3.50
2008,04,22,04,59,3.50
2008,04,22,05,00,3.50
2008,04,22,05,01,3.50
2008,04,22,05,02,3.50
2008,04,22,05,03,3.50
2008,04,22,05,04,3.60
2008,04,22,05,05,3.60
2008,04,22,05,06,3.70
2008,04,22,05,07,3.70
2008,04,22,05,08,3.70
2008,04,22,05,09,3.80
2008,04,22,05,10,3.80
2008,04,22,05,11,3.90
2008,04,22,05,12,3.90
2008,04,22,05,13,4.00
2008,04,22,05,14,4.00
2008,04,22,05,15,4.00
2008,04,22,05,16,4.10
2008,04,22,05,17,4.10
2008,04,22,05,18,4.20
2008,04,22,05,19,4.20
2008,04,22,05,20,4.20
2008,04,22,05,21,4.20
2008,04,22,05,22,4.20
2008,04,22,05,23,4.20
2008,04,22,05,24,4.20
2008,04,22,05,25,4.20
2008,04,22,05,26,4.20
2008,04,22,05,27,4.20
2008,04,22,05,28,4.20
2008,04,22,05,29,4.20
2008,04,22,05,30,4.20
2008,04,22,05,31,4.20
2008,04,22,05,32,4.20
2008,04,22,05,33,4.20
2008,04,22,05,34,4.20
2008,04,22,05,35,4.20
2008,04,22,05,36,4.10
2008,04,22,05,37,4.10
2008,04,22,05,38,4.10
2008,04,22,05,39,4.10
2008,04,22,05,40,4.10
2008,04,22,05,41,4.10
2008,04,22,05,42,4.00
2008,04,22,05,43,4.00
2008,04,22,05,44,4.00
2008,04,22,05,45,4.00
2008,04,22,05,46,4.00
2008,04,22,05,47,4.00
2008,04,22,05,48,4.00
2008,04,22,05,49,4.00
2008,04,22,05,50,4.00
2008,04,22,05,51,4.00
2008,04,22,05,52,4.00
2008,04,22,05,53,4.00
2008,04,22,05,54,4.00
2008,04,22,05,55,4.00
2008,04,22,05,56,4.00
2008,04,22,05,57,4.10
2008,04,22,05,58,4.10
2008,04,22,05,59,4.10
2008,04,22,06,00,4.10
2008,04,22,06,01,4.10
2008,04,22,06,02,4.10
2008,04,22,06,03,4.10
2008,04,22,06,04,4.10
2008,04,22,06,05,4.10
2008,04,22,06,06,4.10
2008,04,22,06,07,4.10
2008,04,22,06,08,4.00
2008,04,22,06,09,4.00
2008,04,22,06,10,4.00
2008,04,22,06,11,4.00
2008,04,22,06,12,4.00
2008,04,22,06,13,4.00
2008,04,22,06,14,4.00
2008,04,22,06,15,4.10
2008,04,22,06,16,4.10
2008,04,22,06,17,4.10
2008,04,22,06,18,4.10
2008,04,22,06,19,4.10
2008,04,22,06,20,4.10
2008,04,22,06,21,4.10
2008,04,22,06,22,4.00
2008,04,22,06,23,4.00
2008,04,22,06,24,4.00
2008,04,22,06,25,4.00
2008,04,22,06,26,4.00
2008,04,22,06,27,4.00
2008,04,22,06,28,4.00
2008,04,22,06,29,4.00
2008,04,22,06,30,4.00
2008,04,22,06,31,4.00
2008,04,22,06,32,4.00
2008,04,22,06,33,4.00
2008,04,22,06,34,4.00
2008,04,22,06,35,4.00
2008,04,22,06,36,4.00
2008,04,22,06,37,4.00
2008,04,22,06,38,4.00
2008,04,22,06,39,4.00
2008,04,22,06,40,4.10
2008,04,22,06,41,4.10
2008,04,22,06,42,4.10
2008,04,22,06,43,4.10
2008,04,22,06,44,4.10
2008,04,22,06,45,4.20
2008,04,22,06,46,4.20
2008,04,22,06,47,4.20
2008,04,22,06,48,4.20
2008,04,22,06,49,4.20
2008,04,22,06,50,4.20
2008,04,22,06,51,4.30
2008,04,22,06,52,4.30
2008,04,22,06,53,4.30
2008,04,22,06,54,4.40
2008,04,22,06,55,4.40
2008,04,22,06,56,4.40
2008,04,22,06,57,4.50
2008,04,22,06,58,4.50
2008,04,22,06,59,4.50
2008,04,22,07,00,4.50
2008,04,22,07,01,4.50
2008,04,22,07,02,4.50
2008,04,22,07,03,4.60
2008,04,22,07,04,4.60
2008,04,22,07,05,4.60
2008,04,22,07,06,4.60
2008,04,22,07,07,4.60
2008,04,22,07,08,4.60
2008,04,22,07,09,4.60
2008,04,22,07,10,4.70
2008,04,22,07,11,4.70
2008,04,22,07,12,4.70
2008,04,22,07,13,4.80
2008,04,22,07,14,4.80
2008,04,22,07,15,4.90
2008,04,22,07,16,4.90
2008,04,22,07,17,5.00
2008,04,22,07,18,5.10
2008,04,22,07,19,5.10
2008,04,22,07,20,5.10
2008,04,22,07,21,5.20
2008,04,22,07,22,5.30
2008,04,22,07,23,5.30
2008,04,22,07,24,5.30
2008,04,22,07,25,5.30
2008,04,22,07,26,5.30
2008,04,22,07,27,5.30
2008,04,22,07,28,5.40
2008,04,22,07,29,5.40
2008,04,22,07,30,5.50
2008,04,22,07,31,5.50
2008,04,22,07,32,5.50
2008,04,22,07,33,5.50
2008,04,22,07,34,5.50
2008,04,22,07,35,5.50
2008,04,22,07,36,5.50
2008,04,22,07,37,5.60
2008,04,22,07,38,5.60
2008,04,22,07,39,5.60
2008,04,22,07,40,5.70
2008,04,22,07,41,5.70
2008,04,22,07,42,5.70
2008,04,22,07,43,5.70
2008,04,22,07,44,5.70
2008,04,22,07,45,5.60
2008,04,22,07,46,5.60
2008,04,22,07,47,5.60
2008,04,22,07,48,5.70
2008,04,22,07,49,5.70
2008,04,22,07,50,5.70
2008,04,22,07,51,5.70
2008,04,22,07,52,5.80
2008,04,22,07,53,5.80
2008,04,22,07,54,5.90
2008,04,22,07,55,5.90
2008,04,22,07,56,6.00
2008,04,22,07,57,6.00
2008,04,22,07,58,6.10
2008,04,22,07,59,6.10
2008,04,22,08,00,6.20
2008,04,22,08,01,6.20
2008,04,22,08,02,6.20
2008,04,22,08,03,6.20
2008,04,22,08,04,6.20
2008,04,22,08,05,6.30
2008,04,22,08,06,6.30
2008,04,22,08,07,6.40
2008,04,22,08,08,6.40
2008,04,22,08,09,6.40
2008,04,22,08,10,6.40
2008,04,22,08,11,6.40
2008,04,22,08,12,6.40
2008,04,22,08,13,6.40
2008,04,22,08,14,6.40
2008,04,22,08,15,6.40
2008,04,22,08,16,6.40
2008,04,22,08,17,6.40
2008,04,22,08,18,6.40
2008,04,22,08,19,6.40
2008,04,22,08,20,6.40
2008,04,22,08,21,6.40
2008,04,22,08,22,6.40
2008,04,22,08,23,6.50
2008,04,22,08,24,6.60
2008,04,22,08,25,6.60
2008,04,22,08,26,6.60
2008,04,22,08,27,6.60
2008,04,22,08,28,6.60
2008,04,22,08,29,6.60
2008,04,22,08,30,6.50
2008,04,22,08,31,6.40
2008,04,22,08,32,6.40
2008,04,22,08,33,6.40
2008,04,22,08,34,6.40
2008,04,22,08,35,6.40
2008,04,22,08,36,6.60
2008,04,22,08,37,6.60
2008,04,22,08,38,6.60
2008,04,22,08,39,6.60
2008,04,22,08,40,6.60
2008,04,22,08,41,6.60
2008,04,22,08,42,6.60
2008,04,22,08,43,6.60
2008,04,22,08,44,6.60
2008,04,22,08,45,6.60
2008,04,22,08,46,6.60
2008,04,22,08,47,6.60
2008,04,22,08,48,6.60
2008,04,22,08,49,6.60
2008,04,22,08,50,6.60
2008,04,22,08,51,6.60
2008,04,22,08,52,6.60
2008,04,22,08,53,6.60
2008,04,22,08,54,6.60
2008,04,22,08,55,6.60
2008,04,22,08,56,6.60
2008,04,22,08,57,6.60
2008,04,22,08,58,6.60
2008,04,22,08,59,6.70
2008,04,22,09,00,6.80
2008,04,22,09,01,6.80
2008,04,22,09,02,6.80
2008,04,22,09,03,6.80
2008,04,22,09,04,6.80
2008,04,22,09,05,6.90
2008,04,22,09,06,7.00
2008,04,22,09,07,7.10
2008,04,22,09,08,7.20
2008,04,22,09,09,7.30
2008,04,22,09,10,7.20
2008,04,22,09,11,7.20
2008,04,22,09,12,7.20
2008,04,22,09,13,7.10
2008,04,22,09,14,7.10
2008,04,22,09,15,7.10
2008,04,22,09,16,7.10
2008,04,22,09,17,7.10
2008,04,22,09,18,7.20
2008,04,22,09,19,7.10
2008,04,22,09,20,7.10
2008,04,22,09,21,7.10
2008,04,22,09,22,7.10
2008,04,22,09,23,7.10
2008,04,22,09,24,7.10
2008,04,22,09,25,7.20
2008,04,22,09,26,7.30
2008,04,22,09,27,7.30
2008,04,22,09,28,7.40
2008,04,22,09,29,7.40
2008,04,22,09,30,7.50
2008,04,22,09,31,7.50
2008,04,22,09,32,7.60
2008,04,22,09,33,7.70
2008,04,22,09,34,7.70
2008,04,22,09,35,7.70
2008,04,22,09,36,7.70
2008,04,22,09,37,7.70
2008,04,22,09,38,7.60
2008,04,22,09,39,7.70
2008,04,22,09,40,7.60
2008,04,22,09,41,7.60
2008,04,22,09,42,7.60
2008,04,22,09,43,7.60
2008,04,22,09,44,7.60
2008,04,22,09,45,7.70
2008,04,22,09,46,7.80
2008,04,22,09,47,7.80
2008,04,22,09,48,7.80
2008,04,22,09,49,7.80
2008,04,22,09,50,7.80
2008,04,22,09,51,7.90
2008,04,22,09,52,7.90
2008,04,22,09,53,7.90
2008,04,22,09,54,7.90
2008,04,22,09,55,8.00
2008,04,22,09,56,8.10
2008,04,22,09,57,8.20
2008,04,22,09,58,8.30
2008,04,22,09,59,8.40
2008,04,22,10,00,8.50
2008,04,22,10,01,8.60
2008,04,22,10,02,8.70
2008,04,22,10,03,8.70
2008,04,22,10,04,8.70
2008,04,22,10,05,8.60
2008,04,22,10,06,8.40
2008,04,22,10,07,8.30
2008,04,22,10,08,8.30
2008,04,22,10,09,8.50
2008,04,22,10,10,8.60
2008,04,22,10,11,8.70
2008,04,22,10,12,8.70
2008,04,22,10,13,8.70
2008,04,22,10,14,8.70
2008,04,22,10,15,8.50
2008,04,22,10,16,8.30
2008,04,22,10,17,8.30
2008,04,22,10,18,8.30
2008,04,22,10,19,8.40
2008,04,22,10,20,8.50
2008,04,22,10,21,8.70
2008,04,22,10,22,8.70
2008,04,22,10,23,8.80
2008,04,22,10,24,8.90
2008,04,22,10,25,9.00
2008,04,22,10,26,9.10
2008,04,22,10,27,9.20
2008,04,22,10,28,9.20
2008,04,22,10,29,9.20
2008,04,22,10,30,9.30
2008,04,22,10,31,9.30
2008,04,22,10,32,9.40
2008,04,22,10,33,9.50
2008,04,22,10,34,9.40
2008,04,22,10,35,9.30
2008,04,22,10,36,9.30
2008,04,22,10,37,9.40
2008,04,22,10,38,9.40
2008,04,22,10,39,9.30
2008,04,22,10,40,9.30
2008,04,22,10,41,9.40
2008,04,22,10,42,9.40
2008,04,22,10,43,9.40
2008,04,22,10,44,9.40
2008,04,22,10,45,9.30
2008,04,22,10,46,9.40
2008,04,22,10,47,9.50
2008,04,22,10,48,9.70
2008,04,22,10,49,9.70
2008,04,22,10,50,9.70
2008,04,22,10,51,9.70
2008,04,22,10,52,10.10
2008,04,22,10,53,10.10
2008,04,22,10,54,10.20
2008,04,22,10,55,10.30
2008,04,22,10,56,10.40
2008,04,22,10,57,10.40
2008,04,22,10,58,10.40
2008,04,22,10,59,10.30
2008,04,22,11,00,10.30
2008,04,22,11,01,10.30
2008,04,22,11,02,10.20
2008,04,22,11,03,10.10
2008,04,22,11,04,10.00
2008,04,22,11,05,9.90
2008,04,22,11,06,9.90
2008,04,22,11,07,10.00
2008,04,22,11,08,10.10
2008,04,22,11,09,10.10
2008,04,22,11,10,10.10
2008,04,22,11,11,10.10
2008,04,22,11,12,10.10
2008,04,22,11,13,10.10
2008,04,22,11,14,10.10
2008,04,22,11,15,10.20
2008,04,22,11,16,10.30
2008,04,22,11,17,10.40
2008,04,22,11,18,10.40
2008,04,22,11,19,10.50
2008,04,22,11,20,10.60
2008,04,22,11,21,10.60
2008,04,22,11,22,10.50
2008,04,22,11,23,10.40
2008,04,22,11,24,10.30
2008,04,22,11,25,10.20
2008,04,22,11,26,10.10
2008,04,22,11,27,10.10
2008,04,22,11,28,10.20
2008,04,22,11,29,10.10
2008,04,22,11,30,10.00
2008,04,22,11,31,9.90
2008,04,22,11,32,9.90
2008,04,22,11,33,9.80
2008,04,22,11,34,9.70
2008,04,22,11,35,9.70
2008,04,22,11,36,9.70
2008,04,22,11,37,9.80
2008,04,22,11,38,9.90
2008,04,22,11,39,9.80
2008,04,22,11,40,9.90
2008,04,22,11,41,10.10
2008,04,22,11,42,10.20
2008,04,22,11,43,10.20
2008,04,22,11,44,10.20
2008,04,22,11,45,10.10
2008,04,22,11,46,10.10
2008,04,22,11,47,10.00
2008,04,22,11,48,10.10
2008,04,22,11,49,10.10
2008,04,22,11,50,10.10
2008,04,22,11,51,10.10
2008,04,22,11,52,10.20
2008,04,22,11,53,10.20
2008,04,22,11,54,10.20
2008,04,22,11,55,10.20
2008,04,22,11,56,10.20
2008,04,22,11,57,10.20
2008,04,22,11,58,10.20
2008,04,22,11,59,10.20
2008,04,22,12,00,10.20
2008,04,22,12,01,10.10
2008,04,22,12,02,10.00
2008,04,22,12,03,10.10
2008,04,22,12,04,10.20
2008,04,22,12,05,10.40
2008,04,22,12,06,10.40
2008,04,22,12,07,10.60
2008,04,22,12,08,10.60
2008,04,22,12,09,10.60
2008,04,22,12,10,10.60
2008,04,22,12,11,10.80
2008,04,22,12,12,10.80
2008,04,22,12,13,10.80
2008,04,22,12,14,10.90
2008,04,22,12,15,10.80
2008,04,22,12,16,10.80
2008,04,22,12,17,10.70
2008,04,22,12,18,10.60
2008,04,22,12,19,10.60
2008,04,22,12,20,10.60
2008,04,22,12,21,10.60
2008,04,22,12,22,10.60
2008,04,22,12,23,10.70
2008,04,22,12,24,10.80
2008,04,22,12,25,10.80
2008,04,22,12,26,10.90
2008,04,22,12,27,11.00
2008,04,22,12,28,11.10
2008,04,22,12,29,11.10
2008,04,22,12,30,11.10
2008,04,22,12,31,11.10
2008,04,22,12,32,11.10
2008,04,22,12,33,11.10
2008,04,22,12,34,11.00
2008,04,22,12,35,10.90
2008,04,22,12,36,10.80
2008,04,22,12,37,10.80
2008,04,22,12,38,10.70
2008,04,22,12,39,10.70
2008,04,22,12,40,10.60
2008,04,22,12,41,10.70
2008,04,22,12,42,10.80
2008,04,22,12,43,10.90
2008,04,22,12,44,10.90
2008,04,22,12,45,11.10
2008,04,22,12,46,11.00
2008,04,22,12,47,10.90
2008,04,22,12,48,10.90
2008,04,22,12,49,10.90
2008,04,22,12,50,11.10
2008,04,22,12,51,11.10
2008,04,22,12,52,11.10
2008,04,22,12,53,11.00
2008,04,22,12,54,10.90
2008,04,22,12,55,10.90
2008,04,22,12,56,10.90
2008,04,22,12,57,10.90
2008,04,22,12,58,10.90
2008,04,22,12,59,10.90
2008,04,22,13,00,10.90
2008,04,22,13,01,11.00
2008,04,22,13,02,11.10
2008,04,22,13,03,11.10
2008,04,22,13,04,11.10
2008,04,22,13,05,11.10
2008,04,22,13,06,11.10
2008,04,22,13,07,11.10
2008,04,22,13,08,10.90
2008,04,22,13,09,10.90
2008,04,22,13,10,10.90
2008,04,22,13,11,10.90
2008,04,22,13,12,10.90
2008,04,22,13,13,11.00
2008,04,22,13,14,11.10
2008,04,22,13,15,11.10
2008,04,22,13,16,11.20
2008,04,22,13,17,11.30
2008,04,22,13,18,11.30
2008,04,22,13,19,11.20
2008,04,22,13,20,11.20
2008,04,22,13,21,11.10
2008,04,22,13,22,10.90
2008,04,22,13,23,11.00
2008,04,22,13,24,11.10
2008,04,22,13,25,11.10
2008,04,22,13,26,11.10
2008,04,22,13,27,11.00
2008,04,22,13,28,10.90
2008,04,22,13,29,11.00
2008,04,22,13,30,11.10
2008,04,22,13,31,11.20
2008,04,22,13,32,11.30
2008,04,22,13,33,11.40
2008,04,22,13,34,11.40
2008,04,22,13,35,11.40
2008,04,22,13,36,11.40
2008,04,22,13,37,11.40
2008,04,22,13,38,11.40
2008,04,22,13,39,11.40
2008,04,22,13,40,11.40
2008,04,22,13,41,11.40
2008,04,22,13,42,11.40
2008,04,22,13,43,11.40
2008,04,22,13,44,11.40
2008,04,22,13,45,11.30
2008,04,22,13,46,11.30
2008,04,22,13,47,11.20
2008,04,22,13,48,11.20
2008,04,22,13,49,11.20
2008,04,22,13,50,11.30
2008,04,22,13,51,11.20
2008,04,22,13,52,11.20
2008,04,22,13,53,11.10
2008,04,22,13,54,11.10
2008,04,22,13,55,11.10
2008,04,22,13,56,11.10
2008,04,22,13,57,11.10
2008,04,22,13,58,11.10
2008,04,22,13,59,11.10
2008,04,22,14,00,11.10
2008,04,22,14,01,10.90
2008,04,22,14,02,10.90
2008,04,22,14,03,10.90
2008,04,22,14,04,10.90
2008,04,22,14,05,11.10
2008,04,22,14,06,11.10
2008,04,22,14,07,11.10
2008,04,22,14,08,11.20
2008,04,22,14,09,11.30
2008,04,22,14,10,11.40
2008,04,22,14,11,11.40
2008,04,22,14,12,11.60
2008,04,22,14,13,11.60
2008,04,22,14,14,11.70
2008,04,22,14,15,11.60
2008,04,22,14,16,11.70
2008,04,22,14,17,11.70
2008,04,22,14,18,11.80
2008,04,22,14,19,11.80
2008,04,22,14,20,11.80
2008,04,22,14,21,11.80
2008,04,22,14,22,11.70
2008,04,22,14,23,11.60
2008,04,22,14,24,11.60
2008,04,22,14,25,11.80
2008,04,22,14,26,11.80
2008,04,22,14,27,11.80
2008,04,22,14,28,11.80
2008,04,22,14,29,11.90
2008,04,22,14,30,11.80
2008,04,22,14,31,11.80
2008,04,22,14,32,11.80
2008,04,22,14,33,11.80
2008,04,22,14,34,11.80
2008,04,22,14,35,11.80
2008,04,22,14,36,11.80
2008,04,22,14,37,11.80
2008,04,22,14,38,11.80
2008,04,22,14,39,11.80
2008,04,22,14,40,11.80
2008,04,22,14,41,11.80
2008,04,22,14,42,11.80
2008,04,22,14,43,11.80
2008,04,22,14,44,11.80
2008,04,22,14,45,11.90
2008,04,22,14,46,11.90
2008,04,22,14,47,12.00
2008,04,22,14,48,12.00
2008,04,22,14,49,12.10
2008,04,22,14,50,12.00
2008,04,22,14,51,12.00
2008,04,22,14,52,11.90
2008,04,22,14,53,11.90
2008,04,22,14,54,12.00
2008,04,22,14,55,12.00
2008,04,22,14,56,12.10
2008,04,22,14,57,12.10
2008,04,22,14,58,12.20
2008,04,22,14,59,12.10
2008,04,22,15,00,12.10
2008,04,22,15,01,12.10
2008,04,22,15,02,12.10
2008,04,22,15,03,12.20
2008,04,22,15,04,12.20
2008,04,22,15,05,12.20
2008,04,22,15,06,12.20
2008,04,22,15,07,12.10
2008,04,22,15,08,12.00
2008,04,22,15,09,12.00
2008,04,22,15,10,11.90
2008,04,22,15,11,11.90
2008,04,22,15,12,11.90
2008,04,22,15,13,11.90
2008,04,22,15,14,11.80
2008,04,22,15,15,11.80
2008,04,22,15,16,11.90
2008,04,22,15,17,11.90
2008,04,22,15,18,12.00
2008,04,22,15,19,11.90
2008,04,22,15,20,12.00
2008,04,22,15,21,12.00
2008,04,22,15,22,11.90
2008,04,22,15,23,11.90
2008,04,22,15,24,11.90
2008,04,22,15,25,11.90
2008,04,22,15,26,11.80
2008,04,22,15,27,11.80
2008,04,22,15,28,11.80
2008,04,22,15,29,11.80
2008,04,22,15,30,11.90
2008,04,22,15,31,11.90
2008,04,22,15,32,11.90
2008,04,22,15,33,12.00
2008,04,22,15,34,12.00
2008,04,22,15,35,12.00
2008,04,22,15,36,12.00
2008,04,22,15,37,12.10
2008,04,22,15,38,12.10
2008,04,22,15,39,12.00
2008,04,22,15,40,12.00
2008,04,22,15,41,12.00
2008,04,22,15,42,12.00
2008,04,22,15,43,12.00
2008,04,22,15,44,11.90
2008,04,22,15,45,11.80
2008,04,22,15,46,11.90
2008,04,22,15,47,11.90
2008,04,22,15,48,11.90
2008,04,22,15,49,11.80
2008,04,22,15,50,11.90
2008,04,22,15,51,11.90
2008,04,22,15,52,11.90
2008,04,22,15,53,11.80
2008,04,22,15,54,11.80
2008,04,22,15,55,11.70
2008,04,22,15,56,11.60
2008,04,22,15,57,11.60
2008,04,22,15,58,11.60
2008,04,22,15,59,11.40
2008,04,22,16,00,11.40
2008,04,22,16,01,11.40
2008,04,22,16,02,11.40
2008,04,22,16,03,11.40
2008,04,22,16,04,11.40
2008,04,22,16,05,11.30
2008,04,22,16,06,11.30
2008,04,22,16,07,11.30
2008,04,22,16,08,11.30
2008,04,22,16,09,11.40
2008,04,22,16,10,11.30
2008,04,22,16,11,11.30
2008,04,22,16,12,11.30
2008,04,22,16,13,11.20
2008,04,22,16,14,11.20
2008,04,22,16,15,11.20
2008,04,22,16,16,11.20
2008,04,22,16,17,11.20
2008,04,22,16,18,11.30
2008,04,22,16,19,11.30
2008,04,22,16,20,11.30
2008,04,22,16,21,11.30
2008,04,22,16,22,11.20
2008,04,22,16,23,11.20
2008,04,22,16,24,11.20
2008,04,22,16,25,11.20
2008,04,22,16,26,11.20
2008,04,22,16,27,11.30
2008,04,22,16,28,11.30
2008,04,22,16,29,11.30
2008,04,22,16,30,11.30
2008,04,22,16,31,11.30
2008,04,22,16,32,11.40
2008,04,22,16,33,11.40
2008,04,22,16,34,11.40
2008,04,22,16,35,11.30
2008,04,22,16,36,11.40
2008,04,22,16,37,11.40
2008,04,22,16,38,11.40
2008,04,22,16,39,11.40
2008,04,22,16,40,11.40
2008,04,22,16,41,11.30
2008,04,22,16,42,11.30
2008,04,22,16,43,11.20
2008,04,22,16,44,11.20
2008,04,22,16,45,11.10
2008,04,22,16,46,11.10
2008,04,22,16,47,11.10
2008,04,22,16,48,11.10
2008,04,22,16,49,11.10
2008,04,22,16,50,11.10
2008,04,22,16,51,11.10
2008,04,22,16,52,11.10
2008,04,22,16,53,11.10
2008,04,22,16,54,11.10
2008,04,22,16,55,11.10
2008,04,22,16,56,11.10
2008,04,22,16,57,11.10
2008,04,22,16,58,11.10
2008,04,22,16,59,11.10
2008,04,22,17,00,11.20
2008,04,22,17,01,11.20
2008,04,22,17,02,11.20
2008,04,22,17,03,11.20
2008,04,22,17,04,11.30
2008,04,22,17,05,11.30
2008,04,22,17,06,11.30
2008,04,22,17,07,11.30
2008,04,22,17,08,11.30
2008,04,22,17,09,11.30
2008,04,22,17,10,11.20
2008,04,22,17,11,11.20
2008,04,22,17,12,11.20
2008,04,22,17,13,11.30
2008,04,22,17,14,11.30
2008,04,22,17,15,11.30
2008,04,22,17,16,11.30
2008,04,22,17,17,11.30
2008,04,22,17,18,11.30
2008,04,22,17,19,11.40
2008,04,22,17,20,11.40
2008,04,22,17,21,11.40
2008,04,22,17,22,11.40
2008,04,22,17,23,11.40
2008,04,22,17,24,11.40
2008,04,22,17,25,11.40
2008,04,22,17,26,11.40
2008,04,22,17,27,11.40
2008,04,22,17,28,11.40
2008,04,22,17,29,11.40
2008,04,22,17,30,11.40
2008,04,22,17,31,11.40
2008,04,22,17,32,11.40
2008,04,22,17,33,11.40
2008,04,22,17,34,11.40
2008,04,22,17,35,11.40
2008,04,22,17,36,11.40
2008,04,22,17,37,11.50
2008,04,22,17,38,11.60
2008,04,22,17,39,11.60
2008,04,22,17,40,11.50
2008,04,22,17,41,11.50
2008,04,22,17,42,11.60
2008,04,22,17,43,11.60
2008,04,22,17,44,11.60
2008,04,22,17,45,11.60
2008,04,22,17,46,11.60
2008,04,22,17,47,11.50
2008,04,22,17,48,11.40